Notices

What's New in latest Release from April 7th, 2021:

- Updated Glossary, including Speed of Maximum Gust, and Total Hourly Precipitation

- Updated national and regional climate services offices contacts and prices information

- Addition of station inventory lists for 1981-2010, 1971-2000, and 1961-1990 Normals.

If you haven't already, please take our survey and provide feedback about our website: https://eccc.sondage-survey.ca/f/LanguageSelection.aspx?s=442ca660-fcf1-47c0-95a9-59707d6fd709

Hourly Data Report for March 09, 2021

MIRAMICHI RCS
NEW BRUNSWICK
Current Station Operator: ECCC - MSC

47°00'34.000" N
65°27'54.000" W
33.00 m
8100989
71744
ACQ

Download Data

Hourly Data (March 2021)
Hourly Data Report for March 9, 2021
TIME
LST
Temp Definition
°C
Dew Point Definition
°C
Rel Hum Definition
%
Precip. Amount Definition
mm

Wind Dir Definition
10's deg

Wind Spd Definition
km/h
Visibility Definition
km
Stn Press Definition
kPa
Hmdx Definition


Wind Chill Definition


Weather Definition


00:00 -12.1 -13.6 89 LegendMM 25 5   101.85   -15 LegendNANA
01:00 -13.2 -15.1 86 LegendMM 27 5   101.82   -17 LegendNANA
02:00 -14.5 -17.0 81 LegendMM 28 5   101.80   -18 LegendNANA
03:00 -14.1 -15.7 88 LegendMM 26 4   101.72   -17 LegendNANA
04:00 -14.3 -15.7 89 LegendMM 26 8   101.71   -20 LegendNANA
05:00 -15.2 -17.9 80 LegendMM 25 6   101.69   -19 LegendNANA
06:00 -16.7 -18.6 85 LegendMM 26 4   101.68   -20 LegendNANA
07:00 -17.2 -19.1 85 LegendMM 27 5   101.68   -21 LegendNANA
08:00 -13.1 -15.2 84 LegendMM 27 7   101.68   -18 LegendNANA
09:00 -8.7 -12.6 73 LegendMM 25 6   101.66   -12 LegendNANA
10:00 -4.9 -11.4 60 LegendMM 26 5   101.63   -7 LegendNANA
11:00 -1.6 -11.4 47 LegendMM 23 8   101.60   -5 LegendNANA
12:00 0.1 -11.3 42 LegendMM 24 11   101.57     LegendNANA
13:00 -0.3 -11.1 44 LegendMM 24 17   101.53   -5 LegendNANA
14:00 -2.3 -5.0 81 LegendMM 24 11   101.52   -6 LegendNANA
15:00 -2.1 -4.8 82 LegendMM 23 11   101.54   -6 LegendNANA
16:00 -1.3 -4.8 77 LegendMM 29 7   101.55   -4 LegendNANA
17:00 -0.4 -5.0 71 LegendMM 30 4   101.60   -2 LegendNANA
18:00 -1.8 -5.4 76 LegendMM 33 7   101.71   -4 LegendNANA
19:00 -2.8 -5.4 82 LegendMM 29 6   101.79   -5 LegendNANA
20:00 -2.7 -5.2 83 LegendMM 29 6   101.84   -5 LegendNANA
21:00 -3.5 -5.8 84 LegendMM 27 4   101.89   -5 LegendNANA
22:00 -4.7 -6.6 87 LegendMM 27 7   101.97   -8 LegendNANA
23:00 -5.6 -7.9 84 LegendMM 28 8   102.05   -9 LegendNANA

Notes on Data Quality.

Legend

  • E = Estimated
  • M = Missing
  • NA = Not Available*
  • [empty] = Indicates an unobserved value
Date modified: